Chattanooga, TN

11:05 AM EST on December 15, 2017 (GMT -0500)
Lovell

Weather History for KCHA - June, 2013

Change the Weather History Date:

Tuesday, June 18, 2013

  Actual Average Record
Temperature  
Mean Temperature 77 °F 77 °F  
Max Temperature 84 °F 88 °F 100 °F (1936)
Min Temperature 69 °F 67 °F 48 °F (1974)
Cooling Degree Days 12 12  
Month to date cooling degree days 224 185  
Year to date cooling degree days 400 381  
Since 1 June cooling degree days 224 185  
Growing Degree Days 28 (Base 50)    
Moisture  
Dew Point 69 °F    
Average Humidity 79    
Maximum Humidity 93    
Minimum Humidity 65    
Precipitation  
Precipitation 0.73 in 0.14 in 1.95 in (1882)
Month to date precipitation 3.79 2.34  
Year to date precipitation 38.46 25.16  
Snow  
Snow 0.00 in - - ()
Month to date snowfall 0.0  
Since 1 June snowfall 0.0  
Snow Depth 0.00 in    
Sea Level Pressure  
Sea Level Pressure 29.89 in    
Wind  
Wind Speed 6 mph (South)    
Max Wind Speed 20 mph    
Max Gust Speed 23 mph    
Visibility 7 miles    
Events Rain , Thunderstorm    
T = Trace of Precipitation, MM = Missing Value Source: NWS Daily Summary

Daily Weather History Graph

Daily Weather History Graph

Search for Another Location

Airport or City:

Trip Planner

Search our weather history database for the weather conditions in past years. The results will help you decide how hot, cold, wet, or windy it might be!

Date:

Astronomy

Jun. 18, 2013 Rise Set
Actual Time 6:26 AM EDT 8:57 PM EDT
Civil Twilight 5:56 AM EDT 9:27 PM EDT
Nautical Twilight 5:20 AM EDT 10:03 PM EDT
Astronomical Twilight 4:39 AM EDT 10:44 PM EDT
Moon 3:49 PM EDT (6/18) 2:24 AM EDT (6/18)
Length of Visible Light 15h 30m
Length of Day
14h 30m
Waxing Gibbous, 70% of the Moon is Illuminated
Jun 18
Waxing Gibbous
Jun 23
Full
Jun 30
Last Quarter
Jul 8
New
Jul 15
First Quarter

Hourly Weather History & Observations

Time (EDT) Temp. Heat Index Dew Point Humidity Pressure Visibility Wind Dir Wind Speed Gust Speed Precip Events Conditions
12:53 AM 73.0 °F - 68.0 °F 84% 29.92 in 10.0 mi South 3.5 mph - N/A   Partly Cloudy
1:53 AM 72.0 °F - 68.0 °F 87% 29.91 in 10.0 mi South 3.5 mph - N/A   Partly Cloudy
2:53 AM 72.0 °F - 68.0 °F 87% 29.89 in 10.0 mi South 3.5 mph - N/A   Clear
3:53 AM 72.0 °F - 68.0 °F 87% 29.87 in 10.0 mi SSE 3.5 mph - N/A   Mostly Cloudy
4:16 AM 71.6 °F - 68.0 °F 88% 29.89 in 10.0 mi SSE 3.5 mph - N/A   Overcast
4:50 AM 71.6 °F - 68.0 °F 88% 29.90 in 10.0 mi SW 3.5 mph - N/A Thunderstorm Thunderstorm
4:53 AM 72.0 °F - 68.0 °F 87% 29.88 in 10.0 mi SSW 4.6 mph - N/A Thunderstorm Thunderstorm
5:08 AM 71.6 °F - 69.8 °F 94% 29.90 in 10.0 mi SSW 4.6 mph - 0.00 in Rain Light Rain
5:53 AM 71.1 °F - 69.1 °F 93% 29.89 in 3.0 mi Calm Calm - 0.12 in Rain Light Rain
6:14 AM 71.6 °F - 69.8 °F 94% 29.91 in 4.0 mi Calm Calm - 0.00 in   Overcast
6:31 AM 71.6 °F - 69.8 °F 94% 29.91 in 1.5 mi Calm Calm - 0.03 in Rain Heavy Rain
6:33 AM 71.6 °F - 69.8 °F 94% 29.91 in 1.2 mi Calm Calm - 0.05 in Rain Heavy Rain
6:51 AM 71.6 °F - 69.8 °F 94% 29.91 in 0.8 mi SE 5.8 mph - 0.44 in Rain Heavy Rain
6:53 AM 71.1 °F - 69.1 °F 93% 29.89 in 0.8 mi SE 6.9 mph - 0.49 in Rain Heavy Rain
6:55 AM 71.6 °F - 69.8 °F 94% 29.91 in 1.2 mi SE 5.8 mph - 0.04 in Rain Heavy Rain
6:59 AM 71.6 °F - 69.8 °F 94% 29.91 in 1.8 mi SE 4.6 mph - 0.07 in Rain Light Rain
7:03 AM 71.6 °F - 69.8 °F 94% 29.91 in 2.0 mi SSE 4.6 mph - 0.07 in Rain Light Rain
7:43 AM 71.6 °F - 69.8 °F 94% 29.90 in 4.0 mi Variable 6.9 mph - 0.07 in   Mostly Cloudy
7:53 AM 71.1 °F - 69.1 °F 93% 29.88 in 4.0 mi SSE 4.6 mph - 0.07 in   Mostly Cloudy
8:33 AM 71.6 °F - 69.8 °F 94% 29.91 in 5.0 mi South 6.9 mph - N/A   Mostly Cloudy
8:53 AM 72.0 °F - 69.1 °F 91% 29.90 in 5.0 mi South 8.1 mph - N/A   Mostly Cloudy
8:57 AM 71.6 °F - 69.8 °F 94% 29.92 in 5.0 mi South 8.1 mph - N/A   Overcast
9:53 AM 72.0 °F - 69.1 °F 91% 29.90 in 10.0 mi South 5.8 mph - 0.00 in   Light Drizzle
10:53 AM 75.0 °F - 70.0 °F 84% 29.89 in 7.0 mi SSW 8.1 mph - 0.00 in   Light Drizzle
11:53 AM 77.0 °F - 71.1 °F 82% 29.89 in 10.0 mi SSW 9.2 mph - 0.01 in   Mostly Cloudy
12:49 PM 78.8 °F - 71.6 °F 78% 29.89 in 10.0 mi SW 8.1 mph - N/A   Mostly Cloudy
12:53 PM 79.0 °F - 70.0 °F 74% 29.87 in 10.0 mi WSW 8.1 mph - N/A   Mostly Cloudy
1:25 PM 78.8 °F - 69.8 °F 74% 29.89 in 3.0 mi NW 19.6 mph 23.0 mph 0.00 in Rain Heavy Rain
1:30 PM 73.4 °F - 69.8 °F 88% 29.89 in 6.0 mi NW 10.4 mph 23.0 mph 0.01 in Rain Light Rain
1:53 PM 75.0 °F - 71.1 °F 87% 29.88 in 10.0 mi West 6.9 mph - 0.04 in Rain Light Rain
2:53 PM 82.0 °F 86.3 °F 71.1 °F 69% 29.86 in 10.0 mi WNW 8.1 mph - N/A   Mostly Cloudy
3:53 PM 82.0 °F 85.5 °F 69.1 °F 65% 29.86 in 10.0 mi NNW 8.1 mph - N/A   Mostly Cloudy
4:53 PM 81.0 °F 83.8 °F 68.0 °F 65% 29.86 in 10.0 mi NNE 6.9 mph - N/A   Mostly Cloudy
5:53 PM 81.0 °F 83.8 °F 68.0 °F 65% 29.86 in 10.0 mi North 9.2 mph - N/A   Mostly Cloudy
6:19 PM 78.8 °F - 68.0 °F 69% 29.87 in 10.0 mi NNE 13.8 mph - N/A   Mostly Cloudy
6:39 PM 78.8 °F - 66.2 °F 65% 29.87 in 10.0 mi North 16.1 mph - N/A   Mostly Cloudy
6:53 PM 78.1 °F - 66.9 °F 68% 29.86 in 10.0 mi NNE 10.4 mph - N/A   Mostly Cloudy
7:53 PM 78.1 °F - 66.0 °F 66% 29.87 in 10.0 mi NNE 10.4 mph - N/A   Mostly Cloudy
8:53 PM 75.9 °F - 66.9 °F 74% 29.89 in 10.0 mi NNE 6.9 mph - N/A   Mostly Cloudy
9:53 PM 75.0 °F - 66.9 °F 76% 29.91 in 10.0 mi North 4.6 mph - N/A   Mostly Cloudy
10:53 PM 73.0 °F - 68.0 °F 84% 29.94 in 10.0 mi NNE 4.6 mph - N/A   Scattered Clouds
11:53 PM 72.0 °F - 66.9 °F 84% 29.94 in 10.0 mi North 3.5 mph - N/A   Mostly Cloudy